Wetbulb
30.89 31.97 32.17 31.19 31.69 33.26 32.07 34.10 31.67 34.24 33.54 39.91 44.31 45.54 47.15 48.18 49.30 47.96 48.99 48.83 50.56 52.54 54.52 57.31 57.28 57.50 57.77 57.70 57.14 57.90 57.31 56.76 56.09 56.54 56.05 56.13 55.69 55.97 57.04 57.26 57.15 57.21 56.56 57.37
26.95 30.88 30.80 28.98 31.99 33.00 33.47 34.47 34.72 35.52 35.44 42.53 43.31 45.15 45.10 47.19 47.40 47.48 48.65 49.87 50.34 50.12 53.83 56.28 57.66 57.48 57.97 57.66 57.72 57.85 57.08 56.83 57.17 57.17 57.17 56.47 56.00 55.82 55.74 56.16 56.69 53.55 45.81 45.30
22.80 29.32 29.20 24.20 30.30 32.46 33.50 35.58 35.47 31.44 36.69 41.67 40.63 41.72 46.01 48.81 49.96 50.46 51.30 52.22 52.53 50.77 51.70 54.11 58.15 58.58 57.71 57.57 58.24 57.11 56.93 57.33 57.44 57.56 57.30 56.99 57.09 56.92 56.23 48.08 43.29 40.81 38.84 37.60
23.18 26.73 17.93 30.04 37.35 37.89 35.48 37.06 39.57 41.59 42.37 43.51 43.88 46.78 49.13 51.11 49.59 49.73 50.78 51.40 52.34 53.32 53.41 54.32 59.25 58.49 58.30 58.22 57.52 56.88 56.24 57.02 57.78 57.87 57.50 57.02 52.08 44.40 41.40 39.74 37.82 36.28 35.22 34.83
23.73 23.75 28.03 31.67 36.70 38.19 37.04 36.47 42.16 41.10 42.10 43.78 44.66 46.45 45.88 49.12 51.06 49.67 49.93 50.85 51.94 51.65 50.63 50.05 52.41 58.75 58.46 57.74 57.13 56.59 56.18 56.26 56.96 57.57 46.64 43.55 39.97 38.18 37.27 35.59 34.41 33.85 33.95 33.32
25.02 21.57 16.36 31.52 38.51 40.83 39.69 30.77 41.68 42.76 41.77 42.37 43.00 37.76 42.49 48.08 49.35 48.95 49.00 48.54 50.21 49.24 48.24 46.89 45.66 54.82 55.82 54.94 51.67 46.09 43.96 43.40 44.14 42.95 40.50 38.00 36.20 34.76 34.11 33.28 32.22 32.18 31.71 32.66
24.01 21.00 27.63 36.68 40.34 42.13 27.65 30.66 41.83 42.11 42.77 42.38 39.41 41.70 45.81 48.74 47.29 46.97 45.90 45.14 46.25 44.32 42.71 43.98 43.77 44.01 42.17 41.25 40.56 42.10 41.72 40.84 38.62 37.80 36.00 35.12 34.29 33.85 32.26 30.87 30.12 29.33 28.98 29.66
24.80 19.02 19.58 40.05 40.30 33.66 37.83 40.34 41.22 41.70 42.09 42.31 43.02 45.10 47.42 47.01 44.00 42.92 42.07 42.24 42.39 40.50 39.73 41.61 40.90 42.28 40.35 38.53 39.34 40.26 39.12 38.55 37.15 35.89 35.11 34.04 32.58 31.82 30.91 29.93 28.73 28.21 27.93 27.95
26.86 26.67 38.84 41.56 40.23 43.15 41.84 39.88 40.39 40.25 41.67 42.63 42.72 46.08 46.92 42.57 40.86 40.41 39.96 40.02 40.32 39.47 38.83 38.76 39.10 39.33 38.62 38.22 39.32 39.00 37.79 36.23 35.47 35.01 34.20 32.86 31.51 30.72 29.96 30.19 29.03 28.11 27.63 26.05
33.92 37.35 38.57 41.51 43.30 43.07 40.92 39.69 40.95 42.53 42.29 44.74 45.14 46.06 43.37 39.90 38.70 37.29 37.56 37.85 38.54 37.83 36.69 36.06 36.60 36.17 36.00 36.26 36.08 34.61 33.42 32.40 32.19 31.95 31.32 31.83 32.09 31.36 29.78 28.31 26.87 25.74 24.10 21.93
34.74 38.07 40.53 41.74 42.42 42.75 42.33 42.22 42.26 45.48 44.52 44.18 43.66 39.81 39.21 37.08 35.90 36.01 36.44 37.74 37.82 36.53 35.53 34.83 35.22 34.89 35.06 34.42 33.21 30.83 29.74 28.81 27.69 27.10 26.35 25.96 25.83 25.59 24.53 25.73 26.13 23.76 23.11 22.70
33.07 38.96 38.72 39.81 42.33 43.61 41.96 43.34 45.21 45.06 39.86 39.33 39.18 37.11 35.21 32.71 32.19 32.01 31.09 31.65 34.17 35.41 35.15 35.16 34.76 33.73 33.59 33.04 31.70 29.66 27.43 26.55 25.44 24.58 23.74 23.04 22.07 22.41 26.16 25.33 25.06 24.98 24.50 23.31
37.48 42.38 41.84 42.07 43.40 44.54 43.89 42.31 40.77 38.81 38.17 35.26 34.16 32.78 30.86 28.54 27.82 27.81 27.63 28.07 28.72 29.49 30.58 31.26 32.91 32.42 32.18 31.39 30.38 28.26 26.05 25.36 24.44 23.49 22.43 21.26 20.44 19.39 17.80 22.09 24.05 23.90 23.95 24.05
41.37 41.09 39.91 42.21 41.15 44.50 41.61 38.78 37.59 34.84 34.18 32.83 30.44 29.36 27.46 25.44 25.39 25.16 25.33 26.67 27.28 27.37 27.82 28.50 29.10 29.96 31.69 31.40 29.73 28.00 26.80 25.67 24.31 22.75 21.39 20.30 19.01 18.64 18.48 17.16 16.40 18.15 21.95 21.79
40.19 43.36 42.44 43.13 43.73 44.42 42.76 39.40 34.95 31.90 30.11 28.14 27.72 26.31 25.88 24.02 23.53 23.90 25.42 26.31 26.51 25.91 25.83 26.15 26.12 26.71 29.46 29.99 28.95 28.39 28.14 27.50 26.96 26.42 25.40 23.57 21.89 19.83 18.86 18.15 17.65 17.76 18.65 19.29
41.57 41.83 41.86 41.53 40.62 42.43 42.42 37.71 32.70 29.78 27.78 25.82 24.27 24.41 24.38 24.51 23.87 23.74 24.44 25.52 23.36 22.33 23.67 23.68 23.36 24.85 26.24 26.41 25.81 25.45 24.95 24.85 24.13 23.17 22.34 20.97 19.34 17.14 15.34 14.26 13.70 12.87 12.47 13.51
35.86 35.38 36.85 37.00 37.86 38.64 39.42 38.73 33.10 29.12 26.25 24.75 23.83 23.76 22.52 21.18 20.45 20.15 20.31 21.43 21.73 21.73 22.72 22.62 22.43 24.57 25.22 25.13 24.38 23.53 23.22 22.73 22.23 21.81 20.57 19.29 17.30 14.63 13.18 12.48 11.83 12.02 11.87 13.52
34.76 35.08 35.56 34.77 35.05 36.14 34.39 31.37 28.97 26.65 24.54 23.50 22.54 21.44 20.42 19.21 18.12 18.36 18.98 19.89 19.84 19.65 21.01 22.19 22.85 23.08 23.17 23.32 22.71 21.48 20.56 20.03 19.65 18.90 18.79 17.98 17.46 16.09 13.48 12.37 11.89 11.28 10.98 11.05
31.50 31.59 31.58 31.16 32.32 30.58 28.35 25.91 24.26 23.52 22.95 21.71 20.19 18.90 18.83 18.36 18.28 18.08 18.58 17.91 17.47 17.00 19.18 21.80 22.95 21.54 20.79 21.14 20.30 19.42 18.55 17.84 17.25 16.79 16.39 15.54 14.41 13.81 12.40 11.46 10.60 9.76 9.37 8.65
27.07 27.72 27.85 27.21 28.46 27.97 25.55 24.84 23.68 21.63 21.25 20.37 19.73 18.42 16.58 16.61 16.90 16.43 16.48 15.19 17.13 18.32 20.21 20.08 19.98 19.64 20.02 20.30 19.96 18.47 17.04 15.49 14.23 12.71 12.25 11.39 10.77 10.31 10.30 8.82 9.07 6.88 3.46 2.43
24.18 24.14 24.23 23.96 23.38 23.35 22.64 22.32 20.73 19.47 20.28 19.22 17.06 15.84 15.22 16.12 16.58 16.21 14.69 13.93 17.54 19.59 19.75 19.56 19.20 18.43 18.51 18.12 17.64 16.78 15.38 14.14 13.19 12.95 12.18 11.45 10.71 9.71 8.09 5.87 6.10 4.46 1.59 0.74
20.83 16.93 17.77 20.22 19.82 19.60 20.65 20.81 19.81 18.61 17.84 17.25 16.48 15.85 14.59 13.78 13.70 13.35 14.70 13.77 15.90 16.74 17.53 17.75 17.77 17.35 17.32 17.40 16.86 15.78 15.07 14.64 13.74 13.08 11.08 9.85 7.77 5.58 3.52 4.13 3.21 1.05 -3.00 -6.69
13.36 15.41 13.98 14.62 17.17 17.11 17.84 18.00 17.54 17.08 15.71 15.31 14.75 14.58 14.05 14.11 14.03 11.24 9.34 14.46 15.36 15.84 15.95 15.71 15.67 15.33 15.17 14.90 14.10 13.25 12.68 11.54 10.81 9.97 8.62 7.76 5.35 2.08 1.31 -0.14 -1.53 -3.38 -7.35 -7.41
13.85 14.46 16.84 18.54 17.27 16.46 14.38 15.11 15.53 15.21 14.64 14.13 13.59 13.66 12.41 9.99 10.22 12.69 13.52 13.46 13.68 14.54 14.96 15.32 15.26 15.15 14.20 13.40 12.52 11.11 10.61 9.66 8.76 7.93 7.05 2.92 1.51 -1.36 -1.71 -2.48 -3.19 -8.73 -11.22 -6.16
19.17 17.88 16.83 16.11 14.65 13.64 14.00 14.61 13.96 13.69 13.33 13.03 13.04 13.50 12.82 12.42 9.42 10.94 12.14 12.82 14.38 13.19 13.26 14.02 13.71 12.08 10.49 9.46 8.39 7.26 7.40 9.32 7.76 6.52 5.48 4.22 1.75 -1.45 -6.14 -8.73 -11.25 -10.13 -7.05 -10.12
19.85 18.83 17.87 17.17 16.24 16.33 16.27 14.94 11.83 11.94 11.10 9.62 10.20 10.73 10.76 11.52 11.49 11.36 11.64 12.04 12.46 12.44 11.95 12.19 11.82 11.45 10.57 9.52 8.90 8.07 6.74 5.88 5.53 4.85 2.28 1.20 -1.19 -3.64 -9.59 -10.12 -10.12 -11.39 -13.75 -14.48
18.35 18.84 17.91 17.10 16.76 15.57 14.44 13.04 11.29 10.55 11.22 10.34 9.09 10.61 11.19 11.58 11.10 10.73 10.63 10.87 10.95 10.11 9.63 10.67 11.29 11.03 10.24 8.90 6.55 4.54 3.22 2.52 2.39 2.94 -0.13 -3.18 -4.16 -10.67 -12.66 -12.84 -13.03 -13.03 -13.39 -13.39
MSLP
1008.93 1008.26 1007.58 1006.76 1005.88 1005.35 1004.99 1004.61 1004.50 1003.52 1002.13 1001.28 1000.26 999.60 1000.11 999.45 997.81 997.10 996.01 995.36 995.68 996.68 997.38 996.23 997.34 998.28 999.08 1000.09 1001.13 1002.02 1003.00 1003.62 1004.36 1004.99 1005.61 1006.30 1006.98 1007.64 1008.20 1008.81 1009.41 1009.98 1010.61 1011.14
1009.23 1008.54 1007.56 1006.57 1005.25 1004.37 1003.72 1003.29 1002.92 1002.34 1001.23 1000.38 999.72 999.46 998.70 998.45 997.66 997.03 996.04 996.15 995.60 995.80 996.91 998.00 996.32 997.13 998.03 999.02 1000.03 1001.08 1002.15 1002.92 1003.84 1004.71 1005.26 1005.80 1006.55 1007.14 1007.89 1008.61 1009.31 1010.08 1011.37 1012.00
1009.35 1009.05 1007.63 1005.64 1004.34 1003.41 1002.56 1002.30 1002.42 1001.89 1001.28 1000.56 999.72 999.21 999.79 999.31 998.82 998.30 997.85 997.43 996.31 995.82 996.07 997.89 997.75 996.23 997.02 998.14 999.31 1000.42 1001.47 1002.43 1003.38 1004.28 1005.07 1005.89 1006.68 1007.35 1008.23 1009.38 1010.57 1011.57 1012.53 1013.36
1009.82 1009.49 1007.98 1003.97 1003.49 1002.52 1001.89 1001.67 1001.66 1002.08 1002.20 1001.87 1001.31 1000.48 1000.13 1000.23 1000.07 999.78 999.50 998.89 998.49 997.75 996.45 995.77 995.37 996.73 996.33 997.45 998.49 999.83 1000.95 1001.84 1002.82 1003.75 1004.73 1005.85 1007.03 1008.51 1009.72 1010.96 1012.00 1012.97 1013.84 1014.47
1010.68 1009.04 1007.02 1004.43 1003.20 1001.92 1001.69 1002.28 1003.08 1002.97 1002.41 1001.94 1001.29 1000.32 1000.81 1001.12 1001.29 1001.19 1000.88 1000.42 999.96 999.70 998.55 997.78 997.02 996.14 997.88 998.50 998.75 999.99 1001.04 1001.61 1002.44 1003.58 1005.38 1006.54 1008.23 1009.70 1011.10 1011.92 1013.19 1014.28 1015.31 1015.96
1010.42 1009.15 1006.73 1004.10 1003.26 1002.48 1002.08 1002.94 1003.76 1003.33 1002.89 1002.47 1002.21 1002.11 1002.24 1002.10 1002.02 1001.89 1001.85 1001.40 1000.90 1000.87 1000.78 1000.29 999.21 997.26 997.72 999.48 1000.22 1001.66 1002.52 1003.31 1003.55 1004.78 1006.30 1007.89 1009.06 1010.40 1011.88 1012.94 1014.25 1015.43 1016.12 1016.82
1010.09 1009.16 1006.84 1004.33 1003.19 1002.66 1003.22 1004.70 1004.19 1003.81 1003.56 1003.26 1003.52 1003.56 1002.96 1002.95 1003.08 1003.06 1003.01 1002.70 1002.35 1002.23 1002.52 1002.44 1002.33 1001.42 1000.62 1001.22 1002.50 1003.80 1004.50 1004.83 1005.41 1006.29 1007.41 1008.95 1010.42 1011.67 1012.37 1013.62 1014.95 1016.24 1017.04 1017.98
1009.36 1008.75 1006.98 1004.41 1003.41 1003.45 1004.03 1004.08 1004.00 1003.91 1003.73 1003.76 1003.72 1003.48 1003.45 1003.52 1003.80 1003.84 1004.17 1003.99 1003.80 1003.98 1004.10 1004.05 1003.86 1003.59 1003.29 1003.73 1004.70 1005.23 1005.97 1006.47 1007.28 1008.09 1008.93 1010.11 1011.15 1012.73 1013.21 1014.21 1015.34 1016.50 1017.63 1018.68
1007.57 1006.62 1005.65 1004.96 1004.78 1004.22 1003.94 1004.12 1004.10 1004.07 1003.84 1003.95 1003.99 1004.11 1004.03 1004.71 1004.80 1005.09 1005.45 1005.32 1005.25 1005.19 1005.36 1005.43 1005.35 1005.13 1005.27 1005.82 1005.91 1006.27 1006.93 1008.14 1008.88 1009.84 1010.54 1011.48 1012.21 1013.61 1014.97 1015.07 1016.23 1017.27 1018.16 1019.46
1006.88 1005.77 1005.40 1004.50 1004.39 1004.04 1003.91 1003.78 1003.71 1003.73 1004.00 1004.38 1004.69 1005.11 1005.38 1005.64 1005.81 1006.10 1006.18 1006.38 1006.40 1006.37 1006.57 1006.70 1006.65 1006.43 1006.52 1006.91 1007.20 1007.48 1008.23 1009.48 1010.46 1011.07 1011.92 1012.73 1013.53 1014.55 1015.74 1016.62 1017.61 1018.52 1019.39 1019.48
1006.55 1005.89 1005.28 1005.49 1004.72 1004.00 1003.63 1003.49 1003.64 1003.90 1004.65 1005.07 1005.59 1006.39 1006.69 1007.03 1007.34 1007.16 1007.16 1007.04 1007.23 1007.45 1007.67 1007.85 1007.86 1007.87 1008.00 1008.23 1008.53 1009.03 1009.82 1011.02 1011.75 1012.71 1013.43 1014.15 1015.20 1016.86 1016.76 1017.80 1018.58 1019.55 1020.32 1021.20
1006.15 1006.32 1006.20 1004.92 1003.74 1003.36 1003.49 1003.59 1004.20 1004.58 1005.71 1005.89 1006.60 1007.30 1007.91 1008.55 1008.98 1008.85 1008.93 1008.66 1008.70 1008.85 1008.78 1008.83 1008.89 1009.23 1009.61 1009.89 1010.16 1010.72 1011.33 1012.47 1013.40 1014.13 1014.66 1015.89 1016.42 1018.32 1019.58 1019.81 1020.27 1020.67 1021.32 1021.52
1005.34 1004.76 1004.35 1003.72 1003.42 1003.37 1003.58 1004.45 1005.28 1006.08 1006.87 1007.57 1008.32 1008.95 1009.57 1010.18 1010.52 1010.59 1010.55 1010.26 1010.33 1010.34 1010.21 1010.17 1010.19 1010.45 1010.93 1011.29 1011.69 1012.35 1013.15 1014.07 1014.97 1015.65 1016.19 1017.09 1018.08 1018.62 1020.23 1021.58 1022.04 1022.02 1021.87 1022.89
1004.50 1004.11 1003.94 1003.86 1003.83 1003.67 1004.60 1005.51 1006.39 1007.43 1008.18 1009.13 1009.81 1010.43 1011.05 1011.42 1011.63 1011.80 1011.80 1011.96 1011.87 1011.59 1011.64 1011.68 1011.81 1012.20 1012.54 1012.47 1013.04 1013.81 1014.29 1015.37 1016.45 1017.00 1017.24 1018.38 1019.22 1020.16 1020.91 1021.54 1022.38 1023.49 1024.13 1024.61
1004.61 1004.42 1004.60 1004.38 1004.39 1004.71 1005.37 1006.23 1007.29 1008.48 1009.56 1010.54 1011.17 1011.68 1012.22 1012.45 1012.97 1012.97 1013.12 1013.27 1012.90 1012.69 1012.98 1012.91 1013.41 1014.08 1014.07 1013.58 1013.52 1014.71 1015.33 1016.05 1016.79 1017.50 1017.93 1018.66 1020.00 1021.04 1022.07 1023.02 1023.68 1024.41 1025.16 1025.80
1005.44 1005.37 1005.28 1005.26 1005.78 1005.77 1006.25 1007.32 1008.41 1009.68 1010.53 1011.54 1012.30 1012.86 1013.28 1013.85 1014.02 1014.32 1014.54 1014.46 1013.93 1014.47 1014.69 1014.43 1014.56 1015.62 1015.95 1015.44 1015.50 1015.80 1016.55 1017.24 1017.89 1018.71 1019.53 1020.15 1021.44 1022.55 1023.52 1024.40 1025.08 1025.76 1026.27 1026.70
1007.13 1007.13 1007.02 1007.04 1007.05 1007.10 1007.21 1007.69 1008.99 1010.27 1011.46 1012.25 1013.13 1013.85 1014.50 1015.07 1015.26 1015.53 1015.92 1016.12 1015.77 1015.82 1015.97 1016.06 1016.45 1016.89 1017.18 1017.05 1017.05 1017.52 1018.43 1019.09 1019.17 1019.45 1020.37 1021.58 1022.75 1023.69 1024.66 1025.41 1026.22 1026.74 1027.17 1027.65
1009.50 1009.27 1009.05 1009.01 1008.77 1008.48 1009.01 1009.75 1010.51 1011.43 1012.36 1013.28 1014.03 1014.90 1015.55 1015.82 1016.57 1017.16 1017.34 1017.09 1017.36 1017.55 1017.64 1017.85 1018.11 1018.27 1018.32 1018.43 1018.71 1019.14 1019.62 1020.05 1020.74 1021.28 1021.80 1022.72 1023.90 1024.82 1025.52 1026.30 1026.98 1027.58 1028.19 1028.75
1011.35 1011.04 1010.82 1010.63 1010.31 1010.22 1010.74 1011.48 1012.17 1012.83 1013.54 1014.15 1014.84 1015.70 1016.38 1016.95 1017.62 1018.15 1018.27 1018.29 1018.60 1018.93 1019.59 1019.52 1019.44 1019.43 1019.55 1019.84 1020.09 1020.60 1021.06 1021.58 1022.05 1022.57 1023.22 1024.25 1025.09 1025.98 1026.70 1027.34 1027.98 1028.59 1028.92 1029.28
1012.95 1012.84 1012.60 1012.40 1012.13 1011.99 1012.30 1012.91 1013.42 1013.86 1014.59 1015.13 1015.75 1016.53 1017.43 1018.17 1018.62 1019.00 1019.31 1019.53 1020.11 1020.29 1020.56 1020.64 1020.46 1020.40 1020.63 1020.94 1021.29 1021.60 1022.29 1022.85 1023.43 1024.21 1025.05 1025.81 1026.42 1027.18 1027.86 1028.40 1028.89 1029.31 1029.67 1030.17
1014.38 1014.24 1014.06 1013.77 1013.80 1013.79 1013.92 1014.15 1014.64 1015.08 1015.63 1016.14 1016.66 1017.45 1018.21 1019.03 1019.64 1020.03 1020.38 1020.72 1021.43 1021.45 1021.66 1021.78 1021.56 1021.51 1021.58 1021.99 1022.41 1022.81 1023.40 1024.09 1024.82 1025.54 1026.16 1026.86 1027.49 1028.08 1028.90 1029.37 1029.81 1030.22 1030.60 1030.94
1015.71 1015.68 1015.46 1015.29 1015.14 1015.26 1015.33 1015.39 1015.73 1016.31 1016.87 1017.37 1017.93 1018.47 1019.08 1020.01 1020.65 1021.12 1021.64 1021.95 1022.34 1022.43 1022.46 1022.65 1022.83 1022.88 1023.10 1023.32 1023.58 1024.18 1024.77 1025.21 1025.91 1026.71 1027.31 1027.88 1028.62 1029.33 1029.92 1030.21 1030.69 1031.20 1031.24 1031.29
1016.63 1016.63 1016.57 1016.44 1016.46 1016.63 1016.68 1016.87 1017.16 1017.48 1018.12 1018.74 1019.17 1019.66 1020.16 1020.87 1021.44 1021.82 1022.52 1023.39 1023.22 1023.46 1023.76 1023.75 1024.17 1024.28 1024.35 1024.49 1024.94 1025.49 1026.19 1026.61 1027.25 1027.90 1028.46 1029.00 1029.56 1030.16 1030.58 1031.08 1031.45 1031.69 1031.70 1031.79
1017.29 1017.31 1017.37 1017.44 1017.56 1017.66 1017.89 1018.39 1018.66 1018.97 1019.43 1020.02 1020.53 1021.02 1021.36 1021.91 1022.76 1023.30 1023.64 1023.89 1024.15 1024.31 1024.73 1024.96 1024.97 1025.23 1025.49 1025.70 1026.12 1026.67 1027.40 1027.96 1028.36 1028.89 1029.42 1029.91 1030.37 1030.74 1031.06 1031.59 1031.80 1032.01 1032.34 1032.10
1017.71 1017.95 1018.12 1018.36 1018.57 1018.87 1019.15 1019.59 1019.96 1020.36 1020.76 1021.35 1021.86 1022.34 1022.77 1023.28 1023.34 1024.36 1024.64 1024.91 1025.08 1025.32 1025.54 1025.81 1025.92 1026.26 1026.66 1027.04 1027.39 1027.83 1028.67 1028.96 1029.30 1029.78 1030.20 1030.47 1030.85 1031.37 1031.70 1032.18 1032.34 1032.39 1032.73 1032.78
1018.12 1018.30 1018.64 1018.91 1019.28 1019.56 1019.92 1020.35 1020.85 1021.49 1021.92 1022.48 1023.14 1023.64 1024.08 1024.49 1024.88 1025.24 1025.65 1025.83 1025.93 1026.20 1026.52 1026.75 1026.98 1027.26 1027.58 1027.98 1028.31 1028.94 1029.60 1029.84 1030.00 1030.26 1030.59 1030.78 1031.08 1031.84 1032.38 1032.68 1032.70 1032.64 1032.96 1032.92
1018.78 1018.91 1019.24 1019.59 1020.04 1020.41 1020.90 1021.37 1021.77 1022.44 1022.96 1023.32 1023.75 1024.53 1024.88 1025.29 1025.75 1026.05 1026.27 1026.54 1026.80 1027.11 1027.33 1027.44 1027.78 1027.98 1028.21 1028.66 1029.10 1029.79 1030.21 1030.52 1030.64 1030.73 1031.02 1031.40 1031.70 1032.23 1032.55 1032.66 1032.68 1032.70 1032.73 1032.62
Wind_Speed
15 19 19 19 22 18 14 5 5 7 13 14 7 6 7 17 20 11 7 7 6 9 7 17 16 17 17 16 12 16 16 15 14 10 8 10 10 9 12 10 9 10 8 10
14 16 21 21 23 20 17 15 9 14 16 12 7 9 10 11 10 6 9 9 6 3 6 10 20 19 18 18 17 16 16 16 14 13 12 10 11 9 8 8 7 6 11 11
17 14 19 18 12 16 18 15 10 14 17 13 12 10 12 11 12 15 16 19 17 5 5 3 17 19 19 19 16 15 15 14 14 14 13 11 10 10 9 10 11 12 13 12
8 5 14 14 13 17 17 15 10 9 11 13 14 8 14 15 14 14 15 18 20 17 16 3 18 10 15 17 17 14 13 14 14 16 14 10 10 13 13 12 13 12 13 13
5 6 11 15 4 8 5 6 12 8 11 13 19 6 9 15 11 11 12 12 12 15 16 16 13 19 1 12 15 13 12 12 12 11 13 15 15 15 13 15 14 14 13 14
3 4 5 3 8 12 6 2 8 9 11 14 15 10 7 11 11 12 12 13 14 14 14 17 19 7 11 8 10 11 9 10 14 15 16 16 17 17 16 16 17 13 16 14
7 5 8 10 6 5 2 3 3 4 5 7 7 5 13 8 8 8 8 11 12 12 12 13 13 11 16 15 15 11 11 13 16 16 19 18 18 14 17 18 17 16 17 15
4 2 9 7 4 1 3 3 3 3 4 5 6 11 8 6 7 8 8 9 10 8 9 11 10 9 13 15 12 14 15 15 16 15 13 13 18 16 17 18 18 17 16 14
8 7 2 3 2 2 4 1 2 4 7 4 5 8 7 5 8 8 8 8 8 7 8 9 8 9 13 10 13 15 18 17 17 17 16 15 17 16 13 14 13 12 11 11
5 5 6 7 9 3 2 2 4 6 3 5 6 7 6 6 6 6 8 8 6 7 8 9 9 11 12 13 14 17 19 18 15 16 17 15 12 11 11 10 10 11 9 12
5 0 1 7 4 7 7 8 6 6 8 9 9 8 8 8 8 9 8 8 7 7 9 10 10 11 12 13 15 17 18 15 16 14 17 17 16 12 13 13 11 11 10 9
2 5 4 12 13 10 10 3 6 9 9 14 11 9 8 8 8 9 10 11 10 9 10 10 12 13 12 12 13 15 16 13 12 13 14 14 17 18 31 27 29 28 23 15
4 5 13 8 6 8 11 12 12 13 11 10 11 10 9 8 9 10 10 12 12 13 14 13 13 14 14 14 15 16 15 14 12 13 13 13 13 16 15 20 28 28 28 24
12 11 5 4 4 6 12 14 15 14 13 11 10 9 9 9 8 9 10 10 11 14 15 15 16 16 14 16 18 17 17 19 11 10 12 12 11 11 10 12 12 11 20 19
8 8 5 8 12 9 12 12 13 11 11 11 10 9 8 10 9 9 8 7 11 14 13 16 15 13 10 14 18 14 11 10 10 9 10 13 12 12 11 11 10 10 9 11
9 9 9 10 9 10 12 10 12 10 10 11 11 10 11 10 11 10 9 8 12 12 11 15 15 11 10 14 16 15 14 17 14 11 11 12 11 11 10 10 10 8 6 6
13 13 11 11 9 10 8 7 10 10 10 11 12 12 12 12 13 13 12 11 13 14 13 13 13 11 11 12 14 11 10 10 15 12 11 11 10 10 9 9 9 8 8 9
12 11 12 10 9 7 8 10 10 10 10 12 12 11 10 12 12 11 10 12 14 15 13 12 12 12 13 12 12 11 10 11 11 11 11 11 10 9 9 9 9 8 8 8
13 12 12 12 10 9 9 10 10 12 11 12 13 12 12 12 12 11 11 13 13 13 11 11 14 14 14 14 12 10 11 11 11 11 11 12 10 9 8 8 8 7 6 6
11 10 9 10 10 8 9 9 10 11 11 13 14 13 13 12 12 13 13 15 11 8 10 11 12 12 13 14 13 10 11 11 11 10 9 9 9 8 8 9 8 7 6 5
11 9 8 9 9 9 8 7 8 10 10 11 14 14 14 12 11 11 12 10 8 9 10 10 9 9 9 11 11 10 10 10 10 9 9 8 9 8 7 6 7 6 4 3
6 5 6 7 8 9 8 9 10 11 11 12 13 14 15 14 13 13 11 10 7 11 8 7 7 11 10 13 9 10 9 10 9 8 8 8 7 7 5 6 6 4 3 3
3 4 5 6 8 8 10 10 10 11 12 11 12 12 11 8 7 9 10 7 8 9 8 9 12 14 14 10 9 10 10 10 9 8 7 7 7 5 5 4 4 3 3 2
3 4 5 6 7 9 11 10 12 12 13 12 12 11 10 9 10 8 9 11 11 10 8 8 11 13 11 8 9 9 9 8 8 7 6 7 5 4 5 5 4 2 2 4
6 6 7 8 8 8 11 11 12 12 13 12 12 10 11 7 7 8 8 8 12 10 9 12 13 13 8 8 8 8 7 6 6 6 5 5 6 5 4 3 3 3 3 3
4 5 5 6 6 6 6 7 8 7 8 9 9 8 9 8 8 8 7 8 8 9 7 6 7 7 7 7 7 7 6 5 5 5 4 4 5 4 4 3 3 3 2 2
6 6 5 6 6 7 7 7 8 8 7 8 10 8 8 7 8 8 9 7 7 7 6 6 6 6 6 7 7 6 5 4 5 4 4 4 4 3 3 3 2 1 1 0
Wind_Direction
263 276 288 288 289 289 280 261 194 249 290 289 240 131 205 250 276 279 300 352 40 87 320 164 166 167 167 172 169 172 180 179 188 176 162 165 167 165 178 176 175 180 166 185
274 277 278 279 279 280 275 278 271 293 280 257 278 242 251 231 288 314 335 329 317 15 101 284 172 171 171 173 175 171 177 178 177 180 181 170 172 169 157 158 164 100 69 81
259 265 286 278 261 271 277 279 277 267 272 296 292 303 43 27 25 24 11 359 332 205 260 219 232 172 173 173 169 169 172 173 172 177 182 179 172 175 173 101 96 86 85 85
272 315 264 262 269 258 247 262 290 20 18 351 357 45 58 37 25 18 8 5 357 345 5 222 168 201 155 163 169 167 161 165 167 174 175 156 106 92 90 88 84 85 85 87
278 219 285 293 4 340 263 139 36 16 17 7 354 353 64 32 28 20 11 360 6 4 7 1 352 123 161 168 157 163 175 167 166 156 109 108 99 97 93 95 90 86 80 78
219 252 241 237 19 333 319 91 346 20 2 11 5 9 347 7 27 15 16 8 6 14 23 13 351 9 111 127 95 84 81 78 90 101 104 103 105 103 101 96 93 87 84 80
224 247 281 293 325 278 356 206 261 329 337 15 355 315 309 28 49 23 19 15 16 25 26 17 7 22 76 75 77 80 83 89 93 98 106 107 104 103 107 104 99 92 88 78
181 182 261 322 287 353 173 47 338 350 354 340 318 326 326 34 48 32 19 19 22 27 26 24 33 53 68 79 90 91 87 89 88 92 99 104 105 109 111 108 105 105 98 90
169 205 87 27 2 298 111 123 358 318 305 323 343 328 316 70 62 49 24 32 27 33 43 39 47 77 91 88 99 102 98 93 93 93 94 95 101 103 103 101 105 107 101 97
11 352 358 40 327 121 137 238 248 263 287 57 15 7 56 53 59 62 56 36 41 51 55 59 63 77 86 95 98 97 97 95 94 94 94 89 91 91 92 89 94 92 94 94
242 90 116 208 240 290 241 225 265 65 73 62 76 58 44 33 32 43 39 44 56 71 74 68 72 75 83 92 97 97 97 95 94 89 86 85 76 70 78 69 84 93 89 84
353 51 301 281 277 247 257 150 85 89 64 56 58 55 52 45 37 48 47 41 51 54 86 86 84 81 80 83 92 99 98 95 93 95 94 91 91 85 78 83 85 86 87 89
262 217 220 261 318 11 104 99 85 79 72 76 66 75 76 70 56 59 58 62 59 64 63 59 71 76 78 83 87 86 89 91 93 95 94 96 98 97 102 83 87 82 82 86
294 295 357 30 339 18 111 104 95 87 75 76 81 78 91 91 81 75 67 75 81 75 68 69 69 70 79 87 85 89 92 91 86 90 98 100 96 102 102 100 93 85 80 83
313 39 25 15 22 74 138 120 94 89 90 80 78 85 83 85 71 63 64 74 82 79 78 78 68 61 68 88 95 90 90 96 102 104 100 101 101 96 95 96 94 90 88 78
354 13 43 41 10 16 64 92 102 103 99 100 92 88 84 80 81 71 55 60 81 75 72 79 77 66 66 80 86 85 81 87 91 93 94 87 87 90 88 85 86 83 79 82
29 19 9 13 359 11 60 110 119 116 114 110 112 106 98 89 81 73 71 62 71 72 71 71 73 71 72 76 84 87 91 91 92 85 87 90 90 93 97 99 98 87 77 77
21 14 11 26 7 354 93 93 101 108 110 112 108 107 101 94 93 89 78 84 74 66 60 66 75 77 74 77 81 85 85 86 85 89 93 94 100 108 107 105 99 92 86 81
18 12 15 19 22 65 82 89 95 102 107 110 108 101 97 94 95 90 88 80 78 77 66 73 80 82 84 84 86 89 89 91 88 85 85 91 92 89 90 92 96 95 93 84
15 21 21 31 35 68 91 90 104 106 110 114 114 108 101 95 95 91 84 78 70 76 84 89 90 87 87 87 91 90 88 89 91 89 89 88 87 89 90 88 95 94 86 85
20 21 31 48 53 55 68 93 106 108 112 110 112 110 107 103 98 100 96 94 83 83 79 78 81 87 88 92 87 88 93 94 93 94 94 92 91 87 88 88 87 86 78 77
30 21 32 48 62 64 64 79 92 98 102 105 104 105 103 98 93 81 71 84 76 65 74 71 74 76 83 86 86 87 87 88 88 90 91 91 89 88 86 87 89 85 88 75
33 47 44 50 70 74 70 72 79 93 97 101 106 107 103 100 99 104 101 77 80 79 78 85 84 82 83 82 82 83 83 85 86 87 86 91 95 94 90 92 92 95 67 77
57 62 71 66 70 79 80 73 79 80 82 81 81 85 98 100 81 77 86 87 86 87 88 84 88 85 83 86 90 89 87 86 86 88 94 97 100 95 85 90 87 71 53 63
93 94 93 89 86 85 89 91 89 84 86 83 81 81 86 81 92 108 100 96 90 88 85 82 80 76 76 78 81 79 76 87 92 94 92 102 100 97 94 88 92 79 72 84
102 82 92 97 106 110 96 93 91 90 95 93 86 88 91 93 97 100 100 99 91 89 82 79 83 91 93 93 90 85 82 82 85 92 85 90 95 91 85 80 81 85 101 114
78 85 97 87 79 89 94 96 100 96 94 101 102 98 101 99 96 101 105 102 92 87 84 81 83 85 92 93 92 93 87 79 77 85 77 87 95 109 104 106 91 78 157 158